COSMOS 2251 DEB, 34726

Orbit data source: Space-Track

COSMOS 2251 DEB, 34726 is space debris in LEO originally from a launch on Wed, 16 Jun 1993 UTC launched from the Plesetsk Missile And Space Complex (PKMTR). The debris from Iridium 33, an American commercial communications satellite, has been tracked extensively since its accidental collision with the defunct Russian satellite Cosmos 2251 in 2009. This event, occurring at high speed in low Earth orbit (LEO), generated thousands of pieces of space debris, significantly increasing the risk of further collisions. The Iridium 33 debris cloud has impacted space traffic management and orbital debris mitigation strategies, making it a subject of ongoing study in space situational awareness.

Loading next visibility...
Identifier
34726, 1993-036YU
Orbit
LEO
Country
Flag of CISCIS
Related business
Manufacturer
Unknown
Mission
Spacecraft
Bus & Motor
Unknown
Mass
Unknown
Launch date (UTC)
1993-06-16 (32 years ago)
Launch vehicle
Unknown
Launch site
Plesetsk Missile And Space Complex (PKMTR)
Object type
Payload
Rocket body
Debris
Shape & HBR
Unknown shape, 0.1 m
Radar Cross Section
Small (<0.1 m²)

Expand to show TLE details & history
Last TLE update: 1 day ago

TLE from 1 day ago
0 COSMOS 2251 DEB
1 34726U 93036YU  25301.48413315  .00004008  00000-0  84476-3 0  9997
2 34726  74.0288  72.6312 0044485 233.8569 125.8476 14.59168914878425
Epoch: 2025-10-28T11:37Z
TLE epoch observation values (Epoch: 2025-10-28T11:37:09.104Z)
Latitude
-0.00004°
Longitude
-138.72771°
Altitude
717.021 km
Speed
7.487 km/s
True Right ascension
04h 50m 31s
True Declination
0° 00' 00"
Sunlit
Object was in full shadow at epoch
Visualization orbit readout
Latitude
Unknown
Longitude
Unknown
Altitude
Unknown
Speed
Unknown
Apparent Right ascension
Unknown
Apparent Declination
Unknown
Sunlit
N/A
Visualization observer readout
Local Sidereal Time
06:41:42
Azimuth
Unknown
Elevation
Unknown
Doppler factor
Unknown
Orbital elements
Apogee altitude
724.916 km
Perigee altitude
662 km
Semi-major axis
7,071.595 km
Eccentricity
0.00445
Inclination
74.0288°
RAAN
72.6312°
Arg. of periapsis
233.8569°
True anomaly
126.25946°
Mean anomaly
125.8476°
Eccentric anomaly
126.05366°
Mean motion
3.64978 °/min
Orbital period
98.64 mins
BSTAR
0.00084476

Documentation

Showing up to 5 results
|